KLM35B EGLL-EHAM

Flight info

Callsign KLM35B
Flight time 1h 6m
Altitude 29000
Route BPK Q295 BRAIN M197 REDFA
Aircraft B77W/H-SDE1E2E3FGHIJ2J3J4J5M1RWXY/LB1D1

Departure

Time 2026-05-07 17:50
Airport London Heathrow Airport (EGLL)

Arrival

Time 2026-05-07 18:57
Airport Amsterdam Airport Schiphol (EHAM)
Time Latitude Longitude Altitude Speed Heading
2026-05-07 17:28 51.47261 -0.43918 98 ft 0 kts 90°
2026-05-07 17:33 51.47261 -0.43931 98 ft 2 kts 89°
2026-05-07 17:34 51.47261 -0.43957 98 ft 2 kts 89°
2026-05-07 17:34 51.47262 -0.43984 97 ft 2 kts 91°
2026-05-07 17:34 51.47264 -0.44010 95 ft 2 kts 95°
2026-05-07 17:34 51.47267 -0.44036 95 ft 2 kts 107°
2026-05-07 17:35 51.47275 -0.44059 96 ft 2 kts 157°
2026-05-07 17:35 51.47286 -0.44061 96 ft 0 kts 169°
2026-05-07 17:36 51.47285 -0.44061 95 ft 0 kts 169°
2026-05-07 17:38 51.47262 -0.44060 96 ft 6 kts 179°
2026-05-07 17:38 51.47204 -0.44060 96 ft 11 kts 180°
2026-05-07 17:38 51.47104 -0.44060 99 ft 17 kts 180°
2026-05-07 17:39 51.46963 -0.44059 97 ft 23 kts 180°
2026-05-07 17:39 51.46789 -0.44058 96 ft 27 kts 180°
2026-05-07 17:39 51.46703 -0.44062 96 ft 7 kts 192°
2026-05-07 17:39 51.46674 -0.44092 96 ft 3 kts 233°
2026-05-07 17:40 51.46666 -0.44135 96 ft 7 kts 260°
2026-05-07 17:40 51.46666 -0.44244 96 ft 13 kts 270°
2026-05-07 17:40 51.46665 -0.44416 96 ft 19 kts 269°
2026-05-07 17:40 51.46664 -0.44660 96 ft 24 kts 270°
2026-05-07 17:41 51.46663 -0.44919 96 ft 22 kts 270°
2026-05-07 17:41 51.46663 -0.45157 96 ft 20 kts 270°
2026-05-07 17:41 51.46662 -0.45371 96 ft 18 kts 270°
2026-05-07 17:41 51.46662 -0.45561 96 ft 16 kts 269°
2026-05-07 17:42 51.46661 -0.45734 96 ft 15 kts 269°
2026-05-07 17:42 51.46660 -0.45909 96 ft 16 kts 270°
2026-05-07 17:42 51.46660 -0.46087 99 ft 17 kts 270°
2026-05-07 17:42 51.46659 -0.46277 99 ft 17 kts 270°
2026-05-07 17:43 51.46658 -0.46474 99 ft 18 kts 269°
2026-05-07 17:43 51.46657 -0.46681 99 ft 19 kts 269°
2026-05-07 17:43 51.46656 -0.46898 96 ft 20 kts 269°
2026-05-07 17:43 51.46656 -0.47125 96 ft 21 kts 270°
2026-05-07 17:44 51.46656 -0.47359 96 ft 22 kts 270°
2026-05-07 17:44 51.46656 -0.47605 96 ft 22 kts 270°
2026-05-07 17:44 51.46654 -0.47846 96 ft 20 kts 269°
2026-05-07 17:44 51.46652 -0.48035 96 ft 10 kts 269°
2026-05-07 17:45 51.46652 -0.48074 96 ft 0 kts 269°
2026-05-07 17:46 51.46652 -0.48079 96 ft 1 kts 270°
2026-05-07 17:46 51.46652 -0.48108 96 ft 4 kts 270°
2026-05-07 17:46 51.46652 -0.48167 96 ft 7 kts 270°
2026-05-07 17:47 51.46652 -0.48273 96 ft 12 kts 270°
2026-05-07 17:47 51.46652 -0.48423 96 ft 15 kts 270°
2026-05-07 17:47 51.46652 -0.48610 96 ft 17 kts 269°
2026-05-07 17:47 51.46639 -0.48726 99 ft 5 kts 239°
2026-05-07 17:48 51.46621 -0.48752 99 ft 2 kts 214°
2026-05-07 17:48 51.46613 -0.48757 99 ft 0 kts 205°
2026-05-07 17:48 51.46607 -0.48761 99 ft 2 kts 204°
2026-05-07 17:48 51.46590 -0.48771 97 ft 3 kts 199°
2026-05-07 17:49 51.46561 -0.48781 98 ft 5 kts 188°
2026-05-07 17:49 51.46523 -0.48777 98 ft 6 kts 170°
2026-05-07 17:49 51.46497 -0.48753 100 ft 3 kts 131°
2026-05-07 17:49 51.46487 -0.48720 99 ft 5 kts 113°
2026-05-07 17:50 51.46478 -0.48589 97 ft 27 kts 90°
2026-05-07 17:50 51.46479 -0.47789 96 ft 116 kts 90°
2026-05-07 17:50 51.46482 -0.46041 203 ft 193 kts 90°
2026-05-07 17:50 51.46499 -0.43665 1038 ft 232 kts 90°
2026-05-07 17:51 51.46630 -0.40976 1891 ft 235 kts 74°
2026-05-07 17:51 51.47445 -0.38971 2604 ft 209 kts 41°
2026-05-07 17:51 51.48591 -0.37496 3454 ft 211 kts 38°
2026-05-07 17:51 51.49746 -0.36010 4278 ft 214 kts 39°
2026-05-07 17:52 51.50830 -0.34396 5041 ft 217 kts 56°
2026-05-07 17:52 51.51606 -0.32267 5660 ft 228 kts 62°
2026-05-07 17:52 51.52323 -0.29897 5857 ft 239 kts 69°
2026-05-07 17:52 51.52858 -0.27380 5942 ft 237 kts 72°
2026-05-07 17:53 51.53371 -0.24869 5972 ft 235 kts 71°
2026-05-07 17:53 51.54006 -0.22458 5981 ft 234 kts 59°
2026-05-07 17:53 51.55138 -0.20633 6011 ft 233 kts 33°
2026-05-07 17:53 51.56544 -0.19310 6022 ft 235 kts 24°
2026-05-07 17:54 51.58099 -0.18510 6020 ft 234 kts 14°
2026-05-07 17:54 51.59664 -0.17824 6007 ft 234 kts 14°
2026-05-07 17:54 51.61236 -0.17096 6004 ft 234 kts 15°
2026-05-07 17:54 51.62822 -0.16345 6009 ft 241 kts 15°
2026-05-07 17:55 51.64432 -0.15590 6037 ft 238 kts 15°
2026-05-07 17:55 51.66014 -0.14855 6451 ft 240 kts 15°
2026-05-07 17:55 51.67633 -0.14106 6811 ft 244 kts 15°
2026-05-07 17:55 51.69272 -0.13340 7176 ft 248 kts 15°
2026-05-07 17:56 51.70947 -0.12556 7552 ft 250 kts 14°
2026-05-07 17:56 51.72623 -0.11754 7932 ft 253 kts 19°
2026-05-07 17:56 51.74067 -0.10143 8270 ft 257 kts 51°
2026-05-07 17:56 51.74853 -0.07623 8699 ft 257 kts 72°
2026-05-07 17:57 51.75386 -0.04807 9126 ft 261 kts 76°
2026-05-07 17:57 51.75657 -0.02913 9369 ft 261 kts 82°
2026-05-07 17:57 51.75967 0.00938 9901 ft 262 kts 85°
2026-05-07 17:57 51.76188 0.03878 10282 ft 264 kts 85°
2026-05-07 17:58 51.76431 0.06812 10635 ft 264 kts 84°
2026-05-07 17:58 51.76684 0.09762 10989 ft 265 kts 84°
2026-05-07 17:58 51.76930 0.12710 11356 ft 266 kts 84°
2026-05-07 17:58 51.77183 0.15686 11719 ft 268 kts 84°
2026-05-07 17:59 51.77431 0.18672 12089 ft 269 kts 85°
2026-05-07 17:59 51.77647 0.21646 12459 ft 269 kts 86°
2026-05-07 17:59 51.77877 0.24669 12846 ft 277 kts 85°
2026-05-07 17:59 51.78139 0.27791 13239 ft 281 kts 84°
2026-05-07 18:00 51.78400 0.30919 13631 ft 281 kts 85°
2026-05-07 18:00 51.78652 0.34058 14006 ft 282 kts 85°
2026-05-07 18:00 51.78902 0.37216 14344 ft 284 kts 85°
2026-05-07 18:00 51.79156 0.40403 14691 ft 287 kts 85°
2026-05-07 18:01 51.79413 0.43639 14864 ft 292 kts 85°
2026-05-07 18:01 51.79675 0.46896 14953 ft 291 kts 85°
2026-05-07 18:01 51.79933 0.50143 15079 ft 299 kts 85°
2026-05-07 18:01 51.80199 0.53566 15507 ft 315 kts 84°
2026-05-07 18:02 51.80757 0.60664 16445 ft 319 kts 84°
2026-05-07 18:02 51.81044 0.64246 16897 ft 321 kts 83°
2026-05-07 18:02 51.81475 0.67806 17369 ft 325 kts 76°
2026-05-07 18:03 51.82057 0.71371 17864 ft 328 kts 76°
2026-05-07 18:03 51.82612 0.74959 18351 ft 331 kts 77°
2026-05-07 18:03 51.83117 0.78595 18777 ft 333 kts 78°
2026-05-07 18:03 51.83692 0.82240 19225 ft 335 kts 73°
2026-05-07 18:04 51.84385 0.85849 19670 ft 337 kts 73°
2026-05-07 18:04 51.85070 0.89494 20115 ft 340 kts 74°
2026-05-07 18:04 51.85759 0.93294 20328 ft 370 kts 74°
2026-05-07 18:04 51.86495 0.97360 20804 ft 392 kts 74°
2026-05-07 18:05 51.87280 1.01662 21290 ft 404 kts 74°
2026-05-07 18:05 51.88077 1.06041 21774 ft 407 kts 74°
2026-05-07 18:05 51.88871 1.10441 22239 ft 408 kts 74°
2026-05-07 18:05 51.89670 1.14873 22730 ft 409 kts 74°
2026-05-07 18:06 51.90469 1.19309 23211 ft 412 kts 74°
2026-05-07 18:06 51.91274 1.23793 23712 ft 416 kts 74°
2026-05-07 18:06 51.92097 1.28395 24144 ft 435 kts 74°
2026-05-07 18:06 51.92959 1.33210 24601 ft 454 kts 74°
2026-05-07 18:07 51.93848 1.38205 25047 ft 465 kts 74°
2026-05-07 18:07 51.94749 1.43279 25489 ft 469 kts 74°
2026-05-07 18:07 51.95651 1.48361 25926 ft 470 kts 74°
2026-05-07 18:07 51.96547 1.53444 26769 ft 467 kts 74°
2026-05-07 18:08 51.97447 1.58548 27703 ft 473 kts 74°
2026-05-07 18:08 51.98374 1.63720 28484 ft 484 kts 73°
2026-05-07 18:08 51.99331 1.69057 28824 ft 502 kts 77°
2026-05-07 18:08 52.00130 1.74527 28940 ft 502 kts 76°
2026-05-07 18:09 52.00985 1.79944 28980 ft 489 kts 76°
2026-05-07 18:09 52.02805 1.90530 29025 ft 487 kts 71°
2026-05-07 18:09 52.03959 1.95828 29057 ft 510 kts 70°
2026-05-07 18:10 52.05215 2.01370 29070 ft 534 kts 70°
2026-05-07 18:10 52.07433 2.10777 29022 ft 523 kts 69°
2026-05-07 18:10 52.08715 2.16235 28709 ft 510 kts 69°
2026-05-07 18:11 52.09957 2.21557 28360 ft 498 kts 69°
2026-05-07 18:11 52.11175 2.26784 28036 ft 487 kts 69°
2026-05-07 18:11 52.12360 2.31881 27715 ft 476 kts 69°
2026-05-07 18:11 52.13517 2.36861 27397 ft 467 kts 69°
2026-05-07 18:12 52.14652 2.41757 27098 ft 457 kts 69°
2026-05-07 18:12 52.15768 2.46572 26798 ft 448 kts 70°
2026-05-07 18:12 52.16862 2.51301 26342 ft 444 kts 70°
2026-05-07 18:12 52.17946 2.55991 25862 ft 441 kts 70°
2026-05-07 18:13 52.19020 2.60648 25412 ft 438 kts 70°
2026-05-07 18:13 52.20084 2.65274 24935 ft 434 kts 70°
2026-05-07 18:13 52.21142 2.69874 24453 ft 433 kts 70°
2026-05-07 18:13 52.22157 2.74298 23834 ft 395 kts 70°
2026-05-07 18:14 52.23073 2.78300 23139 ft 360 kts 70°
2026-05-07 18:14 52.23912 2.81964 22437 ft 332 kts 70°
2026-05-07 18:14 52.24715 2.85473 22238 ft 323 kts 70°
2026-05-07 18:14 52.25495 2.88892 21902 ft 323 kts 70°
2026-05-07 18:15 52.26299 2.92266 21557 ft 319 kts 68°
2026-05-07 18:15 52.27128 2.95537 20711 ft 305 kts 67°
2026-05-07 18:15 52.27942 2.98674 19898 ft 297 kts 67°
2026-05-07 18:15 52.28752 3.01770 19153 ft 296 kts 67°
2026-05-07 18:16 52.29568 3.04876 18370 ft 297 kts 67°
2026-05-07 18:16 52.30381 3.07961 17497 ft 294 kts 67°
2026-05-07 18:16 52.31183 3.11003 16625 ft 289 kts 67°
2026-05-07 18:16 52.31975 3.14003 15777 ft 285 kts 67°
2026-05-07 18:17 52.32755 3.16958 14967 ft 282 kts 67°
2026-05-07 18:17 52.33529 3.19888 14168 ft 278 kts 67°
2026-05-07 18:17 52.34284 3.22737 13349 ft 275 kts 67°
2026-05-07 18:17 52.35039 3.25589 12482 ft 272 kts 67°
2026-05-07 18:18 52.35786 3.28406 11640 ft 268 kts 67°
2026-05-07 18:18 52.36523 3.31177 10829 ft 264 kts 67°
2026-05-07 18:18 52.37254 3.33918 10031 ft 260 kts 67°
2026-05-07 18:18 52.37975 3.36614 9153 ft 257 kts 67°
2026-05-07 18:19 52.38692 3.39271 8313 ft 254 kts 67°
2026-05-07 18:19 52.39406 3.41882 7608 ft 247 kts 67°
2026-05-07 18:19 52.40108 3.44423 7324 ft 245 kts 67°
2026-05-07 18:19 52.40818 3.46977 7204 ft 247 kts 67°
2026-05-07 18:20 52.41534 3.49553 7162 ft 249 kts 67°
2026-05-07 18:20 52.42251 3.52121 7151 ft 247 kts 67°
2026-05-07 18:20 52.42955 3.54665 7119 ft 249 kts 68°
2026-05-07 18:20 52.43620 3.57327 7151 ft 255 kts 70°
2026-05-07 18:21 52.44253 3.59986 7110 ft 247 kts 70°
2026-05-07 18:21 52.44864 3.62594 7101 ft 245 kts 71°
2026-05-07 18:21 52.45485 3.65267 7108 ft 257 kts 71°
2026-05-07 18:21 52.46117 3.68004 7101 ft 255 kts 71°
2026-05-07 18:22 52.46744 3.70720 7088 ft 255 kts 71°
2026-05-07 18:22 52.47166 3.72553 7086 ft 255 kts 71°
2026-05-07 18:22 52.47995 3.76159 7089 ft 255 kts 71°
2026-05-07 18:22 52.48618 3.78872 7083 ft 254 kts 71°
2026-05-07 18:23 52.49239 3.81588 7087 ft 254 kts 71°
2026-05-07 18:23 52.49832 3.84322 7082 ft 254 kts 72°
2026-05-07 18:23 52.50409 3.87057 7091 ft 254 kts 73°
2026-05-07 18:23 52.50982 3.89808 7080 ft 255 kts 73°
2026-05-07 18:24 52.51553 3.92565 7086 ft 254 kts 73°
2026-05-07 18:24 52.52096 3.95320 7084 ft 253 kts 79°
2026-05-07 18:24 52.52052 3.98157 7088 ft 248 kts 104°
2026-05-07 18:24 52.51579 4.00871 7097 ft 248 kts 113°
2026-05-07 18:25 52.50936 4.03498 7098 ft 247 kts 115°
2026-05-07 18:25 52.50267 4.06103 7093 ft 247 kts 115°
2026-05-07 18:25 52.49623 4.08705 7090 ft 247 kts 114°
2026-05-07 18:25 52.48994 4.11317 6829 ft 248 kts 114°
2026-05-07 18:26 52.48366 4.13921 6572 ft 244 kts 114°
2026-05-07 18:26 52.47739 4.16491 6304 ft 241 kts 114°
2026-05-07 18:26 52.47111 4.19035 6066 ft 239 kts 114°
2026-05-07 18:26 52.46488 4.21560 5796 ft 239 kts 114°
2026-05-07 18:27 52.45861 4.24118 5530 ft 238 kts 114°
2026-05-07 18:27 52.45252 4.26594 5291 ft 236 kts 114°
2026-05-07 18:27 52.44644 4.29069 5125 ft 233 kts 114°
2026-05-07 18:27 52.43887 4.31440 5022 ft 232 kts 134°
2026-05-07 18:28 52.42559 4.32775 5020 ft 230 kts 165°
2026-05-07 18:28 52.40995 4.33356 5033 ft 232 kts 169°
2026-05-07 18:28 52.39405 4.33821 5018 ft 232 kts 171°
2026-05-07 18:28 52.37845 4.34452 4988 ft 232 kts 158°
2026-05-07 18:29 52.36370 4.35608 4715 ft 235 kts 154°
2026-05-07 18:29 52.34924 4.36819 4418 ft 232 kts 153°
2026-05-07 18:29 52.33502 4.38027 4109 ft 230 kts 152°
2026-05-07 18:29 52.32080 4.39229 3838 ft 229 kts 152°
2026-05-07 18:30 52.30666 4.40413 3558 ft 228 kts 152°
2026-05-07 18:30 52.29245 4.41579 3281 ft 228 kts 152°
2026-05-07 18:30 52.27828 4.42728 2994 ft 227 kts 152°
2026-05-07 18:30 52.26411 4.43858 2707 ft 224 kts 152°
2026-05-07 18:31 52.25023 4.44953 2461 ft 218 kts 152°
2026-05-07 18:31 52.23690 4.45991 2379 ft 204 kts 152°
2026-05-07 18:31 52.22634 4.47359 2136 ft 190 kts 117°
2026-05-07 18:31 52.22297 4.49317 2082 ft 177 kts 96°
2026-05-07 18:32 52.22149 4.51291 2036 ft 175 kts 94°
2026-05-07 18:32 52.22032 4.53295 2013 ft 177 kts 93°
2026-05-07 18:32 52.21996 4.55275 1977 ft 176 kts 77°
2026-05-07 18:32 52.22650 4.56907 2016 ft 175 kts 41°
2026-05-07 18:33 52.23373 4.58501 2129 ft 178 kts 62°
2026-05-07 18:33 52.23912 4.60254 2201 ft 164 kts 64°
2026-05-07 18:33 52.24413 4.61889 2394 ft 166 kts 63°
2026-05-07 18:33 52.24961 4.63532 2037 ft 160 kts 60°
2026-05-07 18:34 52.25533 4.65059 1785 ft 153 kts 58°
2026-05-07 18:34 52.26096 4.66494 1514 ft 149 kts 57°
2026-05-07 18:34 52.26670 4.67946 1286 ft 150 kts 56°
2026-05-07 18:34 52.27232 4.69364 1006 ft 150 kts 58°
2026-05-07 18:35 52.27777 4.70802 693 ft 148 kts 57°
2026-05-07 18:35 52.28339 4.72222 396 ft 151 kts 56°
2026-05-07 18:35 52.28909 4.73709 474 ft 164 kts 58°
2026-05-07 18:35 52.29522 4.75327 1173 ft 171 kts 57°
2026-05-07 18:36 52.30201 4.77012 1790 ft 182 kts 54°
2026-05-07 18:36 52.31222 4.78283 2011 ft 195 kts 24°
2026-05-07 18:36 52.32356 4.79510 2004 ft 193 kts 44°
2026-05-07 18:36 52.33406 4.80905 2033 ft 201 kts 36°
2026-05-07 18:37 52.34537 4.82223 2004 ft 198 kts 35°
2026-05-07 18:37 52.35668 4.83509 2004 ft 198 kts 34°
2026-05-07 18:37 52.36804 4.84785 1998 ft 197 kts 34°
2026-05-07 18:37 52.37934 4.86051 1989 ft 197 kts 34°
2026-05-07 18:38 52.39068 4.87325 1988 ft 197 kts 35°
2026-05-07 18:38 52.40202 4.88591 2000 ft 198 kts 34°
2026-05-07 18:38 52.41335 4.89847 2022 ft 196 kts 34°
2026-05-07 18:38 52.42445 4.91140 1995 ft 197 kts 44°
2026-05-07 18:39 52.43035 4.93135 1985 ft 199 kts 84°
2026-05-07 18:39 52.42704 4.95293 2018 ft 201 kts 123°
2026-05-07 18:39 52.41696 4.96892 2081 ft 205 kts 139°
2026-05-07 18:39 52.40559 4.98344 2033 ft 206 kts 146°
2026-05-07 18:40 52.39201 4.98904 2219 ft 203 kts 178°
2026-05-07 18:40 52.37760 4.98897 2552 ft 208 kts 180°
2026-05-07 18:40 52.36332 4.98826 2791 ft 211 kts 181°
2026-05-07 18:40 52.34857 4.98723 2907 ft 212 kts 182°
2026-05-07 18:41 52.33390 4.98602 2949 ft 211 kts 182°
2026-05-07 18:41 52.31925 4.98471 2978 ft 210 kts 182°
2026-05-07 18:41 52.30460 4.98333 2992 ft 210 kts 182°
2026-05-07 18:41 52.29003 4.98186 2998 ft 209 kts 182°
2026-05-07 18:42 52.27547 4.98037 2989 ft 209 kts 182°
2026-05-07 18:42 52.26089 4.97887 2982 ft 209 kts 182°
2026-05-07 18:42 52.24633 4.97739 2981 ft 209 kts 182°
2026-05-07 18:42 52.23233 4.97264 2950 ft 212 kts 209°
2026-05-07 18:43 52.22186 4.95596 3007 ft 212 kts 233°
2026-05-07 18:43 52.21322 4.93621 3016 ft 215 kts 235°
2026-05-07 18:43 52.20489 4.91603 3000 ft 214 kts 236°
2026-05-07 18:43 52.19675 4.89579 2988 ft 213 kts 237°
2026-05-07 18:44 52.18867 4.87548 2996 ft 213 kts 237°
2026-05-07 18:44 52.18067 4.85522 2997 ft 214 kts 237°
2026-05-07 18:44 52.17264 4.83475 2991 ft 213 kts 237°
2026-05-07 18:44 52.16470 4.81438 2988 ft 213 kts 237°
2026-05-07 18:45 52.15674 4.79397 2981 ft 213 kts 237°
2026-05-07 18:45 52.14892 4.77390 2982 ft 213 kts 237°
2026-05-07 18:45 52.14100 4.75353 2995 ft 214 kts 237°
2026-05-07 18:45 52.13297 4.73281 2999 ft 212 kts 237°
2026-05-07 18:46 52.12526 4.71277 3000 ft 213 kts 237°
2026-05-07 18:46 52.11736 4.69221 2996 ft 214 kts 237°
2026-05-07 18:46 52.10948 4.67162 3002 ft 213 kts 237°
2026-05-07 18:46 52.10163 4.65125 2992 ft 213 kts 237°
2026-05-07 18:47 52.09376 4.63075 2991 ft 213 kts 237°
2026-05-07 18:47 52.08592 4.61034 2993 ft 213 kts 237°
2026-05-07 18:47 52.07896 4.58910 2967 ft 215 kts 255°
2026-05-07 18:47 52.07778 4.56511 2993 ft 213 kts 269°
2026-05-07 18:48 52.07777 4.54079 3001 ft 215 kts 271°
2026-05-07 18:48 52.07804 4.51499 3034 ft 241 kts 271°
2026-05-07 18:48 52.07844 4.48803 3033 ft 236 kts 272°
2026-05-07 18:48 52.07895 4.46138 3013 ft 236 kts 272°
2026-05-07 18:49 52.07953 4.43466 2988 ft 235 kts 272°
2026-05-07 18:49 52.08010 4.40857 2967 ft 221 kts 272°
2026-05-07 18:49 52.08226 4.38520 2876 ft 202 kts 295°
2026-05-07 18:49 52.09137 4.36840 2591 ft 195 kts 328°
2026-05-07 18:50 52.10356 4.36123 2368 ft 184 kts
2026-05-07 18:50 52.11533 4.36760 2172 ft 178 kts 36°
2026-05-07 18:50 52.12392 4.38192 1977 ft 175 kts 54°
2026-05-07 18:50 52.13080 4.39755 1980 ft 174 kts 56°
2026-05-07 18:51 52.13810 4.41317 2125 ft 176 kts 52°
2026-05-07 18:51 52.14623 4.42804 2274 ft 175 kts 48°
2026-05-07 18:51 52.15492 4.44266 2321 ft 183 kts 47°
2026-05-07 18:51 52.16387 4.45721 2186 ft 179 kts 45°
2026-05-07 18:52 52.17294 4.47100 2043 ft 178 kts 45°
2026-05-07 18:52 52.17879 4.48030 1938 ft 177 kts 47°
2026-05-07 18:52 52.18706 4.49479 1864 ft 174 kts 49°
2026-05-07 18:52 52.19523 4.50949 1798 ft 175 kts 49°
2026-05-07 18:53 52.20332 4.52427 1816 ft 173 kts 50°
2026-05-07 18:53 52.21131 4.53925 1843 ft 177 kts 51°
2026-05-07 18:53 52.21870 4.55513 1778 ft 178 kts 57°
2026-05-07 18:53 52.22524 4.57206 1734 ft 174 kts 59°
2026-05-07 18:54 52.23169 4.58885 1751 ft 176 kts 58°
2026-05-07 18:54 52.23809 4.60580 1725 ft 171 kts 59°
2026-05-07 18:54 52.24396 4.62148 1613 ft 155 kts 58°
2026-05-07 18:54 52.24968 4.63582 1544 ft 154 kts 57°
2026-05-07 18:55 52.25545 4.65043 1449 ft 150 kts 58°
2026-05-07 18:55 52.26089 4.66485 1293 ft 149 kts 59°
2026-05-07 18:55 52.26641 4.67937 1161 ft 150 kts 58°
2026-05-07 18:55 52.27215 4.69359 919 ft 149 kts 57°
2026-05-07 18:56 52.27772 4.70799 627 ft 150 kts 59°
2026-05-07 18:56 52.28332 4.72235 319 ft 149 kts 57°
2026-05-07 18:56 52.28893 4.73678 49 ft 150 kts 58°
2026-05-07 18:56 52.29423 4.75067 7 ft 127 kts 57°
2026-05-07 18:57 52.29711 4.75736 6 ft 36 kts 38°
2026-05-07 18:57 52.29854 4.75865 5 ft 14 kts 26°
2026-05-07 18:57 52.29907 4.75910 7 ft 13 kts 27°
2026-05-07 18:57 52.30008 4.76005 7 ft 5 kts 47°
2026-05-07 18:58 52.30033 4.76079 7 ft 7 kts 61°
2026-05-07 18:58 52.30053 4.76141 7 ft 5 kts 62°
2026-05-07 18:58 52.30067 4.76179 7 ft 3 kts 59°
2026-05-07 18:58 52.30074 4.76199 7 ft 2 kts 59°
2026-05-07 18:59 52.30086 4.76230 7 ft 5 kts 59°
2026-05-07 18:59 52.30112 4.76299 7 ft 9 kts 58°
2026-05-07 18:59 52.30154 4.76410 7 ft 13 kts 58°
2026-05-07 18:59 52.30210 4.76557 7 ft 17 kts 58°
2026-05-07 19:00 52.30268 4.76707 7 ft 14 kts 58°
2026-05-07 19:00 52.30318 4.76837 7 ft 12 kts 58°
2026-05-07 19:00 52.30360 4.76948 7 ft 11 kts 58°
2026-05-07 19:00 52.30403 4.77060 7 ft 15 kts 58°
2026-05-07 19:01 52.30467 4.77227 7 ft 20 kts 58°
2026-05-07 19:01 52.30535 4.77403 7 ft 16 kts 58°
2026-05-07 19:01 52.30596 4.77535 7 ft 13 kts 40°
2026-05-07 19:01 52.30676 4.77585 7 ft 13 kts
2026-05-07 19:02 52.30767 4.77598 7 ft 14 kts
2026-05-07 19:02 52.30874 4.77607 7 ft 16 kts
2026-05-07 19:02 52.30996 4.77619 7 ft 19 kts
2026-05-07 19:02 52.31136 4.77632 7 ft 21 kts
2026-05-07 19:03 52.31283 4.77646 7 ft 22 kts
2026-05-07 19:03 52.31429 4.77642 7 ft 19 kts 347°
2026-05-07 19:03 52.31524 4.77536 7 ft 15 kts 315°
2026-05-07 19:03 52.31569 4.77411 7 ft 11 kts 279°
2026-05-07 19:04 52.31569 4.77296 7 ft 9 kts 274°
2026-05-07 19:04 52.31573 4.77196 7 ft 9 kts 272°
2026-05-07 19:04 52.31571 4.77086 7 ft 10 kts 267°
2026-05-07 19:04 52.31568 4.76961 7 ft 12 kts 267°
2026-05-07 19:05 52.31564 4.76816 7 ft 14 kts 267°
2026-05-07 19:05 52.31527 4.76698 7 ft 11 kts 214°
2026-05-07 19:05 52.31453 4.76640 7 ft 10 kts 201°
2026-05-07 19:05 52.31413 4.76657 7 ft 4 kts 143°
2026-05-07 19:06 52.31396 4.76694 7 ft 4 kts 124°
2026-05-07 19:06 52.31384 4.76722 7 ft 0 kts 124°
2026-05-07 19:06 52.31383 4.76725 7 ft 1 kts 124°
2026-05-07 19:07 52.31382 4.76727 7 ft 0 kts 124°